FW1555 Weather Reports


Display with metric or nautical units.
time (UTC)temp
F
wind
direction
speed
MPH
gust
MPH
rain 1hr
in
rain 24hr
in
rain mn
in
humidity
%
barometer
mb
20260903204558 86 0 0.0 0.0 0.00 0.25 0.25 73 1011.9
20260903203053 87 0 0.0 2.0 0.00 0.25 0.25 74 1011.9
20260903201559 86 0 0.0 1.0 0.00 0.25 0.25 75 1011.9
20260903200053 84 0 0.0 2.0 0.00 0.25 0.25 76 1012.0
20260903194551 84 0 0.0 4.0 0.00 0.27 0.25 79 1012.1
20260903193100 85 261 2.0 8.0 0.00 0.27 0.25 74 1012.3
20260903191553 85 236 0.0 5.0 0.00 0.27 0.25 75 1012.5
20260903190050 85 0 0.0 7.0 0.00 0.27 0.25 72 1012.5
20260903184604 85 0 0.0 2.0 0.00 0.38 0.25 73 1012.7
20260903183058 83 0 0.0 7.0 0.00 0.38 0.25 74 1012.7
20260903181555 83 0 0.0 4.0 0.00 0.38 0.25 76 1012.7
20260903180104 82 0 0.0 7.0 0.00 0.38 0.25 77 1012.6
20260903174612 82 0 1.0 10.0 0.00 0.38 0.25 78 1012.8
20260903173106 82 279 1.0 8.0 0.00 0.38 0.25 78 1013.2
20260903171602 81 0 4.0 11.0 0.00 0.38 0.25 78 1013.5
20260903170107 81 262 5.0 12.0 0.00 0.38 0.25 78 1013.6
20260903164554 80 0 0.0 6.0 0.00 0.38 0.25 81 1013.8
20260903163049 79 259 2.0 9.0 0.00 0.38 0.25 81 1013.8
20260903161553 78 259 3.0 12.0 0.00 0.38 0.25 82 1013.9
20260903160050 78 254 0.0 4.0 0.00 0.38 0.25 87 1014.1
20260903154555 77 0 4.0 13.0 0.00 0.38 0.25 88 1014.5
20260903153058 76 0 2.0 8.0 0.00 0.38 0.25 90 1014.5
20260903151558 75 0 1.0 9.0 0.00 0.38 0.25 91 1014.4
20260903150113 74 286 0.0 9.0 0.00 0.38 0.25 92 1014.5
20260903144601 73 0 0.0 8.0 0.00 0.38 0.25 93 1014.5
20260903143100 72 265 2.0 9.0 0.00 0.38 0.25 94 1014.6
20260903141556 72 0 3.0 11.0 0.00 0.38 0.25 95 1014.7
20260903140106 71 273 0.0 4.0 0.00 0.38 0.25 97 1014.5
20260903134601 71 269 1.0 6.0 0.00 0.38 0.25 99 1014.5
20260903133100 70 0 1.0 8.0 0.00 0.38 0.25 100 1014.4
20260903131600 70 0 0.0 7.0 0.00 0.38 0.25 100 1014.5
20260903130117 70 0 0.0 3.0 0.00 0.38 0.25 100 1014.7
20260903124607 69 0 0.0 2.0 0.00 0.38 0.25 100 1014.9
20260903123100 69 0 0.0 0.0 0.00 0.38 0.25 100 1015.1
20260903121553 68 0 0.0 0.0 0.00 0.38 0.25 100 1015.1
20260903120100 68 0 0.0 0.0 0.01 0.38 0.25 100 1014.7
20260903114607 68 0 0.0 0.0 0.01 0.38 0.25 100 1015.1
20260903113058 68 0 0.0 0.0 0.01 0.38 0.25 100 1015.2
20260903111622 67 0 0.0 0.0 0.01 0.38 0.25 100 1015.2
20260903110107 67 0 0.0 0.0 0.00 0.37 0.24 100 1015.2
20260903104631 67 0 0.0 0.0 0.00 0.37 0.24 100 1015.2
20260903103056 67 0 0.0 0.0 0.00 0.37 0.24 100 1015.2
20260903101554 67 0 0.0 2.0 0.00 0.37 0.24 100 1015.2
20260903100051 67 0 0.0 3.0 0.00 0.37 0.24 100 1014.8
20260903094608 67 265 0.0 8.0 0.00 0.38 0.24 100 1014.6
20260903093054 67 0 0.0 4.0 0.00 0.38 0.24 100 1014.5
20260903091551 67 0 1.0 7.0 0.00 0.38 0.24 100 1014.6
20260903090052 67 0 0.0 3.0 0.00 0.38 0.24 100 1015.0
20260903084552 67 0 0.0 0.0 0.00 0.39 0.24 100 1014.9
20260903083059 67 0 0.0 0.0 0.00 0.39 0.24 100 1014.9
20260903081553 66 0 0.0 3.0 0.00 0.39 0.24 100 1015.2
20260903080052 66 0 0.0 0.0 0.01 0.39 0.24 100 1015.7
20260903074604 66 0 0.0 0.0 0.02 0.39 0.24 100 1015.6
20260903073108 66 0 0.0 0.0 0.02 0.39 0.24 100 1015.5
20260903071553 66 0 0.0 0.0 0.02 0.39 0.24 100 1015.5
20260903070051 66 0 0.0 1.0 0.02 0.38 0.23 100 1015.6
20260903064600 66 0 0.0 1.0 0.01 0.38 0.22 100 1015.7
20260903063057 66 0 0.0 0.0 0.02 0.38 0.22 100 1016.0
20260903061612 66 0 0.0 0.0 0.05 0.38 0.22 100 1016.3
20260903060105 66 0 0.0 0.0 0.10 0.37 0.21 100 1016.6
20260903054559 66 0 0.0 1.0 0.14 0.37 0.21 100 1017.0
20260903053107 66 0 0.0 3.0 0.17 0.36 0.20 100 1016.7
20260903051551 66 0 0.0 0.0 0.17 0.33 0.17 100 1017.1
20260903050107 67 0 0.0 0.0 0.11 0.27 0.11 99 1018.1
20260903044548 67 0 1.0 4.0 0.07 0.23 0.07 99 1018.8
20260903043053 67 0 0.0 2.0 0.03 0.19 0.03 99 1018.3
20260903041556 67 0 0.0 0.0 0.00 0.16 0.00 99 1018.3
20260903040050 67 0 0.0 0.0 0.00 0.16 0.00 98 1018.3
20260903034557 67 0 0.0 0.0 0.00 0.16 0.16 98 1018.3
20260903033054 67 0 0.0 0.0 0.00 0.16 0.16 98 1018.4
20260903031552 67 0 0.0 0.0 0.00 0.16 0.16 98 1018.2
20260903030109 67 0 0.0 0.0 0.00 0.16 0.16 98 1018.1
20260903024553 67 0 0.0 0.0 0.00 0.16 0.16 98 1018.4
20260903023051 67 0 0.0 0.0 0.00 0.16 0.16 98 1018.2
20260903021549 67 0 0.0 0.0 0.00 0.16 0.16 98 1018.7
20260903020100 66 0 0.0 0.0 0.00 0.16 0.16 97 1018.6
20260903014609 66 0 0.0 0.0 0.00 0.16 0.16 97 1018.6
20260903013105 66 0 0.0 0.0 0.00 0.16 0.16 97 1018.9
20260903011612 66 0 0.0 0.0 0.00 0.16 0.16 97 1019.0
20260903010117 66 0 0.0 0.0 0.00 0.16 0.16 97 1019.3
20260903004554 66 0 0.0 2.0 0.00 0.19 0.16 97 1019.1
20260903003054 66 0 0.0 0.0 0.00 0.19 0.16 97 1019.6
20260903001601 66 0 0.0 0.0 0.00 0.19 0.16 97 1019.0
20260903000059 66 0 0.0 1.0 0.00 0.19 0.16 97 1018.9
20260902234559 66 0 0.0 0.0 0.00 0.19 0.16 97 1018.6
20260902233051 66 0 0.0 0.0 0.00 0.19 0.16 97 1018.7
20260902231608 66 0 0.0 2.0 0.00 0.19 0.16 97 1018.9
20260902230100 66 0 0.0 0.0 0.00 0.19 0.16 97 1018.9
20260902224606 66 0 0.0 0.0 0.00 0.19 0.16 96 1019.1
20260902223056 66 360 0.0 1.0 0.00 0.19 0.16 96 1019.6
20260902221627 66 0 0.0 1.0 0.00 0.19 0.16 96 1019.4
20260902214602 67 0 0.0 1.0 0.00 0.19 0.16 96 1019.8
20260902213053 67 0 0.0 1.0 0.00 0.19 0.16 96 1019.5
20260902211602 67 0 0.0 0.0 0.00 0.19 0.16 96 1019.4
20260902210059 67 0 0.0 0.0 0.00 0.19 0.16 96 1019.5